ONEWEB-0262 (48980 NORAD) Tracking and Keplerian Element Data

This shows tracking and keplerian element data for the satellite.

Feedback or suggestion? Click here.




ElementValue
Catalog48980
NameONEWEB-0262
Epoch Orbit568
Epoch Day211.25001157
Epoch Year2021
RAAN227.4165
Inclination87.4767
Eccentricity0.0009182
Argument of Perigee155.6544
Mean Anonmoly19.2379
Mean Motion15.00030443
Decay Rate-0.01414099
L11 48980U 21060P 21211.25001157 -.01414099 00000-0 -12414+0 0 9997
L22 48980 87.4767 227.4165 0009182 155.6544 19.2379 15.00030443 5687

Live tracking and technical data element details for ONEWEB-0262 (NORAD 48980). ONEWEB-0262 can be tracked NOW for your location showing map with azimuth and elevation plus other details from your city location.

Track the satellite on the map from your city or location and see movement details for azimuth, elevation, latitude, longitude, range, height, and movement on the map or in text.







IsCatalogInMostPopularTable: catalog: 48980, numindb: 4
Update: records affected: 1



GetName: 48980 ONEWEB-0262

Hit Count: updated at: Sat, 31 Jul 2021 16:17:33 GMT